Tiempo cada hora Dabaizhuang

Hoy, 24 Noviembre, Martes

Tiempo Temperatura Precipitaciones Viento Presión Humedad
00:00 -1°C° 0 mm 2 mps 773 mmHg 43%
01:00 -1°C° 0 mm 2 mps 772 mmHg 44%
02:00 -1°C° 0 mm 2 mps 772 mmHg 45%
03:00 -1°C° 0 mm 2 mps 772 mmHg 45%
04:00 -1°C° 0 mm 2 mps 771 mmHg 45%
05:00 -1°C° 0 mm 2 mps 771 mmHg 45%
06:00 -1°C° 0 mm 2 mps 771 mmHg 45%
07:00 -1°C° 0 mm 2 mps 772 mmHg 44%
08:00 +2°C° 0 mm 1 mps 772 mmHg 43%
09:00 +2°C° 0 mm 2 mps 772 mmHg 39%
10:00 +3°C° 0 mm 2 mps 772 mmHg 34%
11:00 +4°C° 0 mm 2 mps 772 mmHg 30%
12:00 +5°C° 0 mm 2 mps 771 mmHg 29%
13:00 +6°C° 0 mm 2 mps 770 mmHg 28%
14:00 +6°C° 0 mm 2 mps 770 mmHg 26%
15:00 +6°C° 0 mm 2 mps 770 mmHg 29%
16:00 +6°C° 0 mm 1 mps 770 mmHg 33%
17:00 +5°C° 0 mm 1 mps 770 mmHg 37%
18:00 +5°C° 0 mm 1 mps 770 mmHg 38%
19:00 +4°C° 0 mm 1 mps 770 mmHg 40%
20:00 +4°C° 0 mm 1 mps 770 mmHg 42%
21:00 +3°C° 0 mm 1 mps 770 mmHg 45%
22:00 +3°C° 0 mm 1 mps 770 mmHg 47%
23:00 +3°C° 0 mm 1 mps 771 mmHg 50%

Mañana, 25 Noviembre, Miércoles

Tiempo Temperatura Precipitaciones Viento Presión Humedad
00:00 +3°C° 0 mm 1 mps 770 mmHg 52%
01:00 +2°C° 0 mm 1 mps 770 mmHg 55%
02:00 +2°C° 0 mm 1 mps 770 mmHg 58%
03:00 +1°C° 0 mm 1 mps 770 mmHg 57%
04:00 +1°C° 0 mm 1 mps 770 mmHg 57%
05:00 +1°C° 0 mm 1 mps 770 mmHg 56%
06:00 +1°C° 0 mm 1 mps 770 mmHg 54%
07:00 -1°C° 0 mm 2 mps 770 mmHg 52%
08:00 +1°C° 0 mm 2 mps 771 mmHg 49%
09:00 +2°C° 0 mm 2 mps 771 mmHg 44%
10:00 +3°C° 0 mm 3 mps 771 mmHg 38%
11:00 +4°C° 0 mm 3 mps 772 mmHg 33%
12:00 +5°C° 0 mm 3 mps 771 mmHg 31%
13:00 +6°C° 0 mm 2 mps 771 mmHg 30%
14:00 +7°C° 0 mm 2 mps 770 mmHg 28%
15:00 +6°C° 0 mm 2 mps 771 mmHg 30%
16:00 +6°C° 0 mm 1 mps 771 mmHg 33%
17:00 +5°C° 0 mm 1 mps 772 mmHg 35%
18:00 +4°C° 0 mm 2 mps 772 mmHg 38%
19:00 +4°C° 0 mm 2 mps 772 mmHg 40%
20:00 +2°C° 0 mm 3 mps 773 mmHg 43%
21:00 +2°C° 0 mm 3 mps 773 mmHg 45%
22:00 +1°C° 0 mm 3 mps 773 mmHg 46%
23:00 +1°C° 0 mm 3 mps 774 mmHg 48%

Pasado mañana, 26 Noviembre, Jueves

Tiempo Temperatura Precipitaciones Viento Presión Humedad
00:00 +1°C° 0 mm 3 mps 774 mmHg 49%
01:00 0°C° 0 mm 3 mps 774 mmHg 50%
02:00 0°C° 0 mm 3 mps 774 mmHg 51%
03:00 -1°C° 0 mm 3 mps 774 mmHg 51%
04:00 -1°C° 0 mm 3 mps 774 mmHg 52%
05:00 -1°C° 0 mm 3 mps 774 mmHg 53%
06:00 -1°C° 0 mm 3 mps 775 mmHg 52%
07:00 -1°C° 0 mm 3 mps 775 mmHg 51%
08:00 -1°C° 0 mm 3 mps 775 mmHg 50%
09:00 0°C° 0 mm 3 mps 775 mmHg 45%
10:00 +2°C° 0 mm 3 mps 776 mmHg 40%
11:00 +3°C° 0 mm 3 mps 776 mmHg 35%
12:00 +3°C° 0 mm 3 mps 775 mmHg 34%
13:00 +5°C° 0 mm 2 mps 774 mmHg 33%
14:00 +5°C° 0 mm 2 mps 774 mmHg 32%
15:00 +6°C° 0 mm 1 mps 774 mmHg 35%
16:00 +5°C° 0 mm 1 mps 774 mmHg 37%
17:00 +5°C° 0 mm 1 mps 774 mmHg 39%
18:00 +4°C° 0 mm 1 mps 774 mmHg 40%
19:00 +4°C° 0 mm 1 mps 774 mmHg 41%
20:00 +4°C° 0 mm 1 mps 774 mmHg 41%
21:00 +4°C° 0 mm 1 mps 775 mmHg 43%
22:00 +3°C° 0 mm 1 mps 775 mmHg 44%
23:00 +3°C° 0 mm 1 mps 776 mmHg 45%

27 Noviembre, Viernes

Tiempo Temperatura Precipitaciones Viento Presión Humedad
00:00 +2°C° 0 mm 1 mps 775 mmHg 48%
01:00 +1°C° 0 mm 0 mps 775 mmHg 50%
02:00 +1°C° 0 mm 0 mps 775 mmHg 52%
03:00 +1°C° 0 mm 1 mps 775 mmHg 56%
04:00 +1°C° 0 mm 1 mps 775 mmHg 60%
05:00 -2°C° 0 mm 2 mps 776 mmHg 64%
06:00 -2°C° 0 mm 2 mps 776 mmHg 60%
07:00 -2°C° 0 mm 3 mps 776 mmHg 56%
08:00 -2°C° 0 mm 3 mps 777 mmHg 52%
09:00 -1°C° 0 mm 4 mps 777 mmHg 46%
10:00 0°C° 0 mm 4 mps 777 mmHg 39%
11:00 +2°C° 0 mm 5 mps 778 mmHg 32%
12:00 +2°C° 0 mm 5 mps 777 mmHg 31%
13:00 +3°C° 0 mm 4 mps 777 mmHg 30%
14:00 +4°C° 0 mm 4 mps 777 mmHg 29%
15:00 +3°C° 0 mm 4 mps 777 mmHg 31%
16:00 +1°C° 0 mm 4 mps 777 mmHg 34%
17:00 +1°C° 0 mm 3 mps 777 mmHg 36%
18:00 0°C° 0 mm 3 mps 777 mmHg 38%
19:00 0°C° 0 mm 3 mps 778 mmHg 40%
20:00 -1°C° 0 mm 3 mps 778 mmHg 42%
21:00 -1°C° 0 mm 3 mps 778 mmHg 43%
22:00 -2°C° 0 mm 3 mps 778 mmHg 44%
23:00 -2°C° 0 mm 3 mps 778 mmHg 46%

28 Noviembre, Sábado

Tiempo Temperatura Precipitaciones Viento Presión Humedad
00:00 -2°C° 0 mm 3 mps 778 mmHg 46%
01:00 -2°C° 0 mm 3 mps 778 mmHg 47%
02:00 -2°C° 0 mm 3 mps 778 mmHg 48%
03:00 -4°C° 0 mm 3 mps 778 mmHg 48%
04:00 -4°C° 0 mm 3 mps 778 mmHg 48%
05:00 -3°C° 0 mm 2 mps 778 mmHg 47%
06:00 -4°C° 0 mm 3 mps 778 mmHg 46%
07:00 -4°C° 0 mm 3 mps 778 mmHg 44%
08:00 -4°C° 0 mm 3 mps 778 mmHg 42%
09:00 -1°C° 0 mm 3 mps 778 mmHg 37%
10:00 0°C° 0 mm 3 mps 778 mmHg 32%
11:00 +1°C° 0 mm 3 mps 778 mmHg 27%
12:00 +2°C° 0 mm 3 mps 777 mmHg 27%
13:00 +2°C° 0 mm 3 mps 776 mmHg 26%
14:00 +3°C° 0 mm 3 mps 776 mmHg 26%
15:00 +2°C° 0 mm 3 mps 776 mmHg 29%
16:00 +1°C° 0 mm 3 mps 775 mmHg 33%
17:00 +1°C° 0 mm 2 mps 775 mmHg 37%
18:00 -1°C° 0 mm 2 mps 775 mmHg 38%
19:00 -1°C° 0 mm 2 mps 775 mmHg 38%
20:00 -1°C° 0 mm 2 mps 775 mmHg 39%
21:00 -2°C° 0 mm 2 mps 775 mmHg 40%
22:00 -2°C° 0 mm 2 mps 775 mmHg 40%
23:00 -2°C° 0 mm 2 mps 775 mmHg 41%

29 Noviembre, Domingo

Tiempo Temperatura Precipitaciones Viento Presión Humedad
00:00 -3°C° 0 mm 2 mps 775 mmHg 41%
01:00 -1°C° 0 mm 1 mps 775 mmHg 42%
02:00 -1°C° 0 mm 1 mps 774 mmHg 42%
03:00 -1°C° 0 mm 1 mps 774 mmHg 43%
04:00 -1°C° 0 mm 1 mps 774 mmHg 43%
05:00 -1°C° 0 mm 1 mps 774 mmHg 43%
06:00 -1°C° 0 mm 1 mps 774 mmHg 43%
07:00 -1°C° 0 mm 1 mps 775 mmHg 42%
08:00 0°C° 0 mm 1 mps 775 mmHg 42%
09:00 -1°C° 0 mm 2 mps 775 mmHg 38%
10:00 +2°C° 0 mm 2 mps 775 mmHg 34%
11:00 +3°C° 0 mm 2 mps 775 mmHg 31%
12:00 +3°C° 0 mm 3 mps 775 mmHg 29%
13:00 +4°C° 0 mm 3 mps 775 mmHg 28%
14:00 +4°C° 0 mm 3 mps 774 mmHg 26%
15:00 +3°C° 0 mm 3 mps 775 mmHg 29%
16:00 +3°C° 0 mm 2 mps 775 mmHg 33%
17:00 +2°C° 0 mm 2 mps 775 mmHg 36%
18:00 +2°C° 0 mm 2 mps 775 mmHg 37%
19:00 +1°C° 0 mm 2 mps 776 mmHg 38%
20:00 +1°C° 0 mm 2 mps 776 mmHg 40%
21:00 -1°C° 0 mm 2 mps 776 mmHg 40%
22:00 -1°C° 0 mm 2 mps 777 mmHg 41%
23:00 -2°C° 0 mm 2 mps 777 mmHg 42%
Mostrar más

Necesitamos Su Consentimiento

Meteoprog y nuestros Proveedores de Servicios pueden almacenar y acceder a sus datos personales como cookies, identificadores de dispositivo u otras tecnologías similares de su dispositivo y procesar dichos datos para personalizar contenido y anuncios, además de ofrecer funciones de redes sociales y analizar el tráfico.

  • Almacenar y/o acceder a información en su dispositivo

    Se puede almacenar o acceder a cookies, identificadores de dispositivo u otra información de su dispositivo para los fines anteriormente indicados.

  • Anuncios y contenido personalizados, medición de anuncios y contenido, percepciones del público, y desarrollo de productos

    Los anuncios y el contenido pueden personalizarse en base a su perfil. Se pueden añadir más datos para personalizar mejor los anuncios y contenidos. Se puede medir el rendimiento de los anuncios y contenidos. Se puede obtener la percepción sobre el público que ha visto los anuncios y contenidos. Dichos datos pueden usarse para desarrollar o mejorar la experiencia del usuario, sistemas y software.

Al hacer clic en ‘Estoy De Acuerdo’ usted permitirá el uso de las cookies, identificadores de dispositivo, balizas web u otras tecnologías similares indicadas. Su configuración puede cambiarse desde el navegador de su dispositivo.

Para ciertos fines, los intereses legítimos pueden ser considerados por encima del consentimiento. Puede leer más sobre ello en nuestra Política de Privacidad y Cookies.